Tracking 28052 objects as of 23-Sep-2023
HD Live streaming from Space Station
objects crossing your sky now

STARLINK-4384

Track STARLINK-4384 now!
10-day predictions
STARLINK-4384 is classified as:


NORAD ID: 53218
Int'l Code: 2022-084AF
Perigee: 569.2 km
Apogee: 571.1 km
Inclination: 97.7 °
Period: 95.9 minutes
Semi major axis: 6941 km
RCS: Unknown
Launch date: July 22, 2022
Source: United States (US)
Launch site: AIR FORCE WESTERN TEST RANGE (AFWTR)
Your satellite tracking list
Your tracking list is empty




NASA's NSSDC Master Catalog

Two Line Element Set (TLE):
1 53218U 22084AF  23265.79077473  .00002000  00000-0  16030-3 0  9992
2 53218  97.6593 325.4940 0001420 180.9125 179.2097 15.01260074 64977
Source of the keplerian elements: AFSPC